Location: Hamilton
(43.2500°N, 79.8330°W)
Time: 17:09:52
(UTC-05:00)

Amateur Radio Satellites - All Passes

Search period start: 18 January 2017 16:39
Search period end: 19 January 2017 16:39
Location: Hamilton, 43.2500°N, 79.8330°W

Satellite Date Start Highest point End Downlink Frequencies (MHz)
Time Altitude Azimuth
AUBIESAT-1 18 Jan 16:41:21 16:44:44 61° 107° (ESE) 16:48:00 437.475
YUBILEINY 18 Jan 16:50:24 16:56:56 22° 298° (WNW) 17:03:30 435.215
CUTE-I 18 Jan 16:55:48 17:00:28 32° 66° (ENE) 17:05:09 437.470
BEESAT 2 18 Jan 16:57:20 17:00:30 23° 113° (ESE) 17:03:41 435.950
STARS 18 Jan 16:58:10 17:02:23 46° 100° (E) 17:06:35 437.465
AO-7 18 Jan 17:01:46 17:06:39 17° 271° (W) 17:11:35 29.400- 29.500
AO-85 18 Jan 17:05:44 17:06:04 10° 327° (NNW) 17:06:25 145.980
HO-68 18 Jan 17:08:12 17:12:16 16° 51° (NE) 17:16:19 435.675
DOVE 4 18 Jan 17:13:54 17:18:37 42° 72° (ENE) 17:23:07 437.250
CUBESAT XI-V 18 Jan 17:18:57 17:23:41 82° 103° (ESE) 17:28:21 437.345
O/OREOS (USA 219) 18 Jan 17:22:48 17:26:59 39° 254° (WSW) 17:31:11 437.305
CINEMA 3 18 Jan 17:24:33 17:26:18 12° 62° (ENE) 17:28:01 145.822/145.860
NOAA 18 18 Jan 17:24:34 17:29:30 35° 66° (ENE) 17:34:26 137.9125
Cosmos 2504 18 Jan 17:32:18 17:38:17 20° 297° (WNW) 17:44:05 435.465 / 435.565
KKS-1 18 Jan 17:35:25 17:39:23 33° 291° (WNW) 17:43:19 437.445
Cubesat XI-IV 18 Jan 17:37:30 17:42:48 74° 73° (ENE) 17:48:07 437.490
M-CUBED/EXP-1 PRIME 18 Jan 17:37:50 17:40:22 19° 299° (WNW) 17:42:49 437.505
HORYU 2 18 Jan 17:44:26 17:48:20 31° 263° (W) 17:52:15 437.375
CUTE 1.7 + AOD 2 18 Jan 17:45:55 17:47:08 11° 61° (ENE) 17:48:21 437.475
BRITE-PL 18 Jan 17:47:06 17:51:23 22° 269° (W) 17:55:40 437.365/2234.400
NOAA 15 18 Jan 17:54:18 17:59:36 75° 257° (WSW) 18:04:56 137.62
BEESAT 3 18 Jan 17:54:22 17:58:00 38° 310° (NW) 18:01:44 437.485
GOMX 1 18 Jan 18:01:28 18:06:18 32° 264° (W) 18:10:59 467.674
LilacSat-2 18 Jan 18:02:07 18:05:46 50° 261° (W) 18:09:29 437.200
SO-50 18 Jan 18:07:41 18:11:44 33° 244° (WSW) 18:15:44 436.795
Cosmos 2499 18 Jan 18:08:09 18:11:00 12° 75° (ENE) 18:13:48 435.465 / 435.565
CANX-2 18 Jan 18:12:10 18:15:34 24° 67° (ENE) 18:19:00 2200.000
SEEDS 18 Jan 18:28:04 18:31:13 21° 66° (ENE) 18:34:23 437.485
CUBEBUG 2 18 Jan 18:33:02 18:35:19 15° 64° (ENE) 18:37:37 437.445
BEESAT 2 18 Jan 18:34:28 18:38:06 34° 311° (NW) 18:41:48 435.950
STARS 18 Jan 18:35:26 18:38:23 18° 297° (WNW) 18:41:20 437.465
CUTE-I 18 Jan 18:35:39 18:40:27 34° 263° (W) 18:45:17 437.470
COMPASS 1 18 Jan 18:37:58 18:40:47 18° 65° (ENE) 18:43:37 437.405
AAUSAT CUBESAT 2 18 Jan 18:51:18 18:54:14 19° 65° (ENE) 18:57:12 437.432
HO-68 18 Jan 18:51:38 18:58:47 74° 70° (ENE) 19:06:00 435.675
DOVE 4 18 Jan 18:52:25 18:56:24 23° 266° (W) 19:00:15 437.250
CUBESAT XI-V 18 Jan 18:58:27 19:00:22 12° 300° (WNW) 19:02:16 437.345
CINEMA 3 18 Jan 18:58:27 19:02:55 72° 258° (WSW) 19:07:14 145.822/145.860
UWE-3 18 Jan 19:05:03 19:08:05 20° 66° (ENE) 19:11:08 435.000/436.395/437.385
NOAA 18 18 Jan 19:05:09 19:10:07 34° 263° (W) 19:15:06 137.9125
FUNcube-1 18 Jan 19:08:15 19:09:56 12° 62° (ENE) 19:11:36 145.935
CUTE 1.7 + AOD 2 18 Jan 19:18:05 19:22:19 78° 257° (WSW) 19:26:37 437.475
Cubesat XI-IV 18 Jan 19:20:30 19:23:25 15° 270° (W) 19:26:19 437.490
ZACube-1 18 Jan 19:28:24 19:31:33 21° 66° (ENE) 19:34:44 437.345
GONETS M04 18 Jan 19:37:43 19:45:46 44° 87° (E) 19:53:52
CANX-2 18 Jan 19:47:28 19:51:16 31° 264° (W) 19:55:06 2200.000
STRAND 1 18 Jan 19:50:26 19:55:36 82° 104° (ESE) 20:00:45 437.568
Cosmos 2499 18 Jan 19:54:19 20:02:44 68° 94° (E) 20:10:34 435.465 / 435.565
SEEDS 18 Jan 20:02:46 20:06:40 36° 263° (W) 20:10:37 437.485
CUBEBUG 2 18 Jan 20:07:27 20:11:32 52° 260° (W) 20:15:36 437.445
Oscar 11 18 Jan 20:07:28 20:11:37 49° 72° (ENE) 20:15:49 145.826/435.025
COMPASS 1 18 Jan 20:12:00 20:15:59 43° 262° (W) 20:20:02 437.405
AIST 2 18 Jan 20:13:14 20:17:16 58° 120° (ESE) 20:21:23 435.215
AAUSAT CUBESAT 2 18 Jan 20:25:30 20:29:25 40° 262° (W) 20:33:23 437.432
DELFI C3 18 Jan 20:25:57 20:29:17 26° 68° (ENE) 20:32:37 145.870
UWE-3 18 Jan 20:40:31 20:44:20 35° 263° (W) 20:48:10 435.000/436.395/437.385
FUNcube-1 18 Jan 20:41:33 20:45:38 64° 259° (W) 20:49:45 145.935
HO-68 18 Jan 20:41:50 20:47:09 22° 269° (W) 20:52:30 435.675
ZACube-1 18 Jan 21:03:55 21:07:40 33° 264° (W) 21:11:26 437.345
STRAND 1 18 Jan 21:31:25 21:34:05 14° 302° (WNW) 21:36:46 437.568
HUMSAT D 18 Jan 21:31:52 21:35:57 78° 74° (ENE) 21:40:05 437.325/437.525
GONETS M04 18 Jan 21:34:27 21:42:35 43° 288° (WNW) 21:50:50
UNISAT 6 18 Jan 21:39:05 21:42:27 21° 94° (E) 21:45:51 437.425
Oscar 11 18 Jan 21:45:26 21:48:02 16° 269° (W) 21:50:39 145.826/435.025
JAS-2 18 Jan 21:47:03 21:51:07 16° 88° (E) 21:55:20 435.910
Cosmos 2499 18 Jan 21:49:38 21:56:26 27° 292° (WNW) 22:02:54 435.465 / 435.565
PRISM 18 Jan 21:51:12 21:55:22 89° 115° (ESE) 21:59:26 437.425
TIGRISAT 18 Jan 21:52:45 21:56:31 27° 95° (E) 22:00:19 435.000
AIST 2 18 Jan 21:53:07 21:56:06 19° 319° (NW) 21:59:08 435.215
ESTCUBE 1 18 Jan 21:53:08 21:56:28 21° 65° (ENE) 21:59:50 437.505/2401.250
DELFI C3 18 Jan 22:00:38 22:04:00 26° 265° (W) 22:07:25 145.870
ANTELSAT 18 Jan 22:07:11 22:11:22 40° 99° (E) 22:15:37 437.575/2403.000
BY70-1 18 Jan 22:07:13 22:10:02 42° 72° (ENE) 22:13:06 436.1900
AO-85 18 Jan 22:10:52 22:13:55 21° 43° (NE) 22:16:56 145.980
VELOX 1 18 Jan 22:14:23 22:16:27 13° 61° (ENE) 22:18:31 145.980
DX 1 18 Jan 22:52:15 22:54:54 16° 62° (ENE) 22:57:33 434.975-435.025
SPROUT 18 Jan 22:55:59 22:59:22 23° 67° (ENE) 23:02:45 437.525
UKube-1 18 Jan 22:56:03 22:57:57 13° 61° (ENE) 22:59:52 .
CUBEBUG 1 18 Jan 23:03:07 23:07:28 62° 73° (ENE) 23:11:50 437.445
50 SAT 18 Jan 23:11:43 23:14:54 31° 70° (ENE) 23:18:06 437.505
RS-15 18 Jan 23:14:10 23:24:57 43° 108° (ESE) 23:36:06 29.354- 29.394
AISAT 18 Jan 23:14:29 23:18:49 54° 73° (ENE) 23:23:10 437.250
UNISAT 6 18 Jan 23:15:11 23:19:16 38° 289° (WNW) 23:23:26 437.425
ISS 18 Jan 23:27:31 23:30:45 76° 147° (SSE) 23:34:01 145.825
ESTCUBE 1 18 Jan 23:28:40 23:32:58 43° 261° (W) 23:37:20 437.505/2401.250
TIGRISAT 18 Jan 23:29:20 23:33:10 30° 291° (WNW) 23:37:04 435.000
JAS-2 18 Jan 23:29:48 23:36:54 81° 104° (ESE) 23:44:38 435.910
QB50P1 18 Jan 23:30:17 23:34:02 30° 97° (E) 23:37:46 145.935-145.965
POLYITAN 1 18 Jan 23:33:45 23:37:36 34° 97° (E) 23:41:27 437.675
QB50P2 18 Jan 23:34:52 23:38:49 37° 98° (E) 23:42:44 145.880/145.840
ANTELSAT 18 Jan 23:44:32 23:47:49 21° 294° (WNW) 23:51:09 437.575/2403.000
VELOX 1 18 Jan 23:47:53 23:52:19 71° 257° (WSW) 23:56:47 145.980
AO-85 18 Jan 23:50:47 23:54:28 40° 242° (WSW) 23:58:08 145.980
POPSAT HIP 1 18 Jan 23:56:43 00:00:53 59° 100° (E) 00:05:03 437.405
DUCHIFAT 1 19 Jan 00:09:54 00:14:06 73° 103° (ESE) 00:18:17 145.980
AIST 1 19 Jan 00:12:47 00:14:56 13° 68° (ENE) 00:17:03
NANOSAT C BR1 19 Jan 00:14:26 00:18:40 89° 112° (ESE) 00:22:53 145.865
DX 1 19 Jan 00:26:21 00:30:38 55° 259° (W) 00:34:58 434.975-435.025
UKube-1 19 Jan 00:29:07 00:33:26 70° 258° (WSW) 00:37:45 .
TISAT 1 19 Jan 00:30:00 00:33:49 35° 70° (ENE) 00:37:39 437.305
SPROUT 19 Jan 00:31:18 00:35:07 32° 263° (W) 00:38:58 437.525
BEESAT 3 19 Jan 00:32:59 00:36:03 21° 43° (NE) 00:39:06 437.485
CUBEBUG 1 19 Jan 00:42:04 00:44:08 13° 270° (W) 00:46:13 437.445
50 SAT 19 Jan 00:45:50 00:48:11 17° 267° (W) 00:50:34 437.505
BUGSAT 1 19 Jan 00:52:07 00:56:10 77° 103° (ESE) 01:00:12 437.445
AISAT 19 Jan 00:53:02 00:55:36 15° 269° (W) 00:58:11 437.250
YUBILEINY 19 Jan 00:59:18 01:07:42 45° 73° (ENE) 01:16:00 435.215
ISS 19 Jan 01:04:45 01:07:31 25° 344° (NNW) 01:10:18 145.825
QB50P1 19 Jan 01:06:16 01:09:41 24° 293° (WNW) 01:13:03 145.935-145.965
PCSat 19 Jan 01:08:31 01:13:48 57° 115° (ESE) 01:19:07 145.827
POLYITAN 1 19 Jan 01:09:55 01:13:12 22° 294° (WNW) 01:16:29 437.675
QB50P2 19 Jan 01:11:14 01:14:22 20° 294° (WNW) 01:17:30 145.880/145.840
BEESAT 2 19 Jan 01:13:35 01:16:52 23° 44° (NE) 01:20:09 435.950
JAS-2 19 Jan 01:16:04 01:21:17 23° 300° (WNW) 01:26:49 435.910
ITUPSAT 1 19 Jan 01:18:37 01:22:34 27° 65° (ENE) 01:26:32 437.325
RS-15 19 Jan 01:25:06 01:36:57 64° 312° (NW) 01:49:17 29.354- 29.394
Cosmos 2504 19 Jan 01:27:34 01:34:11 33° 70° (ENE) 01:40:32 435.465 / 435.565
POPSAT HIP 1 19 Jan 01:34:03 01:36:11 14° 298° (WNW) 01:38:19 437.405
DUCHIFAT 1 19 Jan 01:47:47 01:49:11 11° 299° (WNW) 01:50:36 145.980
AIST 1 19 Jan 01:48:43 01:52:54 55° 266° (W) 01:57:03
Cosmos 2491 19 Jan 01:48:49 01:56:51 44° 87° (E) 02:04:54 435.465 / 435.565
BEESAT 19 Jan 01:53:37 01:58:16 58° 72° (ENE) 02:02:57 436.000
Gurwin Techsat 1B 19 Jan 01:54:13 01:59:17 43° 98° (E) 02:04:20 435.225
Oscar 19 19 Jan 01:54:22 01:59:35 80° 104° (ESE) 02:04:44 437.125/150
SWISSCUBE 19 Jan 01:55:00 01:59:42 67° 73° (ENE) 02:04:27 437.505
AUBIESAT-1 19 Jan 01:56:11 01:57:24 11° 57° (ENE) 01:58:36 437.475
MOZHAYETS 4 19 Jan 02:05:57 02:09:32 23° 66° (ENE) 02:13:09
TISAT 1 19 Jan 02:06:27 02:09:33 20° 266° (W) 02:12:40 437.305
BEESAT 3 19 Jan 02:10:02 02:13:53 46° 241° (WSW) 02:17:42 437.485
BUGSAT 1 19 Jan 02:30:35 02:30:55 10° 299° (WNW) 02:31:15 437.445
ITAMSAT 1 19 Jan 02:34:13 02:38:04 21° 93° (E) 02:41:54 435.822/435.867
ISS 19 Jan 02:42:23 02:44:46 19° 4° (N) 02:47:10 145.825
PHONESAT 2.4 19 Jan 02:44:50 02:46:08 14° 158° (SSE) 02:47:26 2401.200-2431.200
M-CUBED/EXP-1 PRIME 19 Jan 02:48:54 02:53:08 47° 67° (ENE) 02:57:06 437.505
CUBESAT XI-V 19 Jan 02:49:33 02:50:52 11° 59° (ENE) 02:52:13 437.345
BEESAT 2 19 Jan 02:51:00 02:54:48 40° 243° (WSW) 02:58:34 435.950
PCSat 19 Jan 02:53:06 02:57:34 26° 315° (NW) 03:02:03 145.827
ITUPSAT 1 19 Jan 02:55:53 03:00:14 35° 262° (W) 03:04:38 437.325
YUBILEINY 19 Jan 02:56:19 03:04:24 42° 274° (W) 03:12:26 435.215
AIST 2 19 Jan 02:57:43 02:58:12 10° 32° (NNE) 02:58:40 435.215
KKS-1 19 Jan 02:58:08 03:01:50 26° 67° (ENE) 03:05:33 437.445
AO-7 19 Jan 03:05:19 03:12:36 32° 96° (E) 03:19:47 29.400- 29.500
Cosmos 2504 19 Jan 03:20:45 03:27:46 47° 271° (W) 03:34:32 435.465 / 435.565
AUBIESAT-1 19 Jan 03:26:58 03:31:18 83° 250° (WSW) 03:35:23 437.475
CUSAT 1 19 Jan 03:31:54 03:36:47 67° 95° (E) 03:43:13 437.405
BEESAT 19 Jan 03:33:34 03:36:25 16° 269° (W) 03:39:17 436.000
Gurwin Techsat 1B 19 Jan 03:34:38 03:39:01 27° 296° (WNW) 03:43:22 435.225
Oscar 19 19 Jan 03:35:24 03:38:13 15° 301° (WNW) 03:41:02 437.125/150
SWISSCUBE 19 Jan 03:35:35 03:37:57 14° 270° (W) 03:40:20 437.505
MOZHAYETS 4 19 Jan 03:42:13 03:46:29 38° 263° (W) 03:50:46
RS-15 19 Jan 03:42:16 03:52:35 30° 342° (NNW) 04:03:02 29.354- 29.394
Cosmos 2491 19 Jan 03:45:31 03:53:40 43° 288° (WNW) 04:01:54 435.465 / 435.565
STARS 19 Jan 03:55:29 03:59:41 47° 71° (ENE) 04:03:54 437.465
DANDE 19 Jan 04:07:00 04:10:21 32° 88° (E) 04:14:40 436.750
ITAMSAT 1 19 Jan 04:12:46 04:17:49 52° 290° (WNW) 04:22:51 435.822/435.867
BRITE-PL 19 Jan 04:12:59 04:15:56 16° 88° (E) 04:18:45 437.365/2234.400
PHONESAT 2.4 19 Jan 04:17:45 04:19:55 35° 173° (S) 04:22:04 2401.200-2431.200
ISS 19 Jan 04:18:50 04:21:54 37° 24° (NNE) 04:24:58 145.825
CUBESAT XI-V 19 Jan 04:22:47 04:27:29 88° 69° (ENE) 04:32:14 437.345
M-CUBED/EXP-1 PRIME 19 Jan 04:24:46 04:27:43 17° 261° (W) 04:30:35 437.505
AIST 2 19 Jan 04:33:28 04:37:39 53° 52° (NE) 04:41:47 435.215
KKS-1 19 Jan 04:34:20 04:38:17 31° 263° (W) 04:42:16 437.445
AO-7 19 Jan 04:57:34 05:05:47 61° 295° (WNW) 05:13:54 29.400- 29.500
CUTE-I 19 Jan 05:14:03 05:15:22 11° 87° (E) 05:16:40 437.470
CUSAT 1 19 Jan 05:15:48 05:19:40 19° 301° (WNW) 05:24:12 437.405
STRAND 1 19 Jan 05:30:26 05:33:46 18° 61° (ENE) 05:37:08 437.568
STARS 19 Jan 05:33:27 05:36:17 17° 268° (W) 05:39:06 437.465
HORYU 2 19 Jan 05:33:31 05:37:47 43° 100° (E) 05:42:01 437.375
LilacSat-2 19 Jan 05:35:10 05:37:35 16° 92° (E) 05:39:59 437.200
Cosmos 2499 19 Jan 05:45:33 05:50:59 22° 65° (ENE) 05:56:18 435.465 / 435.565
GONETS M04 19 Jan 05:46:39 05:53:25 24° 63° (ENE) 06:00:10
NOAA 18 19 Jan 05:47:21 05:49:26 12° 88° (E) 05:51:32 137.9125
BRITE-PL 19 Jan 05:50:00 05:54:56 57° 287° (WNW) 05:59:26 437.365/2234.400
DANDE 19 Jan 05:50:17 05:53:19 20° 298° (WNW) 05:57:02 436.750
PHONESAT 2.4 19 Jan 05:51:41 05:53:49 32° 189° (S) 05:55:56 2401.200-2431.200
Cubesat XI-IV 19 Jan 05:54:06 05:58:35 27° 95° (E) 06:03:03 437.490
ISS 19 Jan 05:55:23 05:58:21 32° 221° (SW) 06:01:18 145.825
O/OREOS (USA 219) 19 Jan 05:57:53 06:01:08 20° 101° (E) 06:04:22 437.305
RS-15 19 Jan 05:59:54 06:10:20 30° 17° (NNE) 06:20:38 29.354- 29.394
GOMX 1 19 Jan 06:02:07 06:06:40 77° 104° (ESE) 06:10:54 467.674
NOAA 15 19 Jan 06:08:34 06:13:31 38° 98° (E) 06:18:24 137.62
AIST 2 19 Jan 06:12:59 06:15:43 17° 249° (WSW) 06:18:26 435.215
HO-68 19 Jan 06:21:43 06:23:57 11° 85° (E) 06:26:10 435.675
DOVE 4 19 Jan 06:49:10 06:53:25 86° 280° (W) 06:57:33 437.250
CUTE-I 19 Jan 06:50:48 06:56:09 86° 105° (ESE) 07:01:31 437.470
CINEMA 3 19 Jan 06:52:17 06:55:36 22° 94° (E) 06:58:57 145.822/145.860
AO-7 19 Jan 06:52:26 06:56:52 16° 316° (NW) 07:01:18 29.400- 29.500
CUTE 1.7 + AOD 2 19 Jan 07:02:54 07:05:45 17° 92° (E) 07:08:35 437.475
STRAND 1 19 Jan 07:07:24 07:12:27 64° 258° (WSW) 07:17:31 437.568
LilacSat-2 19 Jan 07:08:25 07:12:02 38° 288° (WNW) 07:15:38 437.200
HORYU 2 19 Jan 07:10:48 07:14:02 20° 296° (WNW) 07:17:14 437.375
NOAA 18 19 Jan 07:25:20 07:30:49 89° 287° (WNW) 07:36:17 137.9125
PHONESAT 2.4 19 Jan 07:26:46 07:27:32 11° 205° (SSW) 07:28:18 2401.200-2431.200
CANX-2 19 Jan 07:30:53 07:34:57 39° 98° (E) 07:38:58 2200.000
Cubesat XI-IV 19 Jan 07:33:47 07:38:47 42° 292° (WNW) 07:43:46 437.490
O/OREOS (USA 219) 19 Jan 07:35:59 07:40:13 41° 299° (WNW) 07:44:29 437.305
Cosmos 2499 19 Jan 07:37:42 07:44:49 67° 266° (W) 07:51:47 435.465 / 435.565
GONETS M04 19 Jan 07:42:27 07:51:18 81° 265° (W) 08:00:09
GOMX 1 19 Jan 07:42:32 07:44:00 11° 301° (WNW) 07:45:27 467.674
SEEDS 19 Jan 07:45:18 07:49:09 32° 96° (E) 07:52:58 437.485
NOAA 15 19 Jan 07:48:34 07:53:08 30° 295° (WNW) 07:57:42 137.62
COMPASS 1 19 Jan 07:53:47 07:57:22 26° 95° (E) 08:00:55 437.405
CUBEBUG 2 19 Jan 07:56:53 08:00:36 28° 96° (E) 08:04:24 437.445
HO-68 19 Jan 08:05:42 08:12:55 70° 104° (ESE) 08:20:02 435.675
AAUSAT CUBESAT 2 19 Jan 08:06:35 08:10:13 28° 95° (E) 08:13:49 437.432
PCSat 19 Jan 08:13:32 08:16:02 13° 34° (NE) 08:18:31 145.827
RS-15 19 Jan 08:13:41 08:26:01 63° 48° (NE) 08:37:53 29.354- 29.394
SO-50 19 Jan 08:21:53 08:26:32 59° 120° (ESE) 08:31:08 436.795
UWE-3 19 Jan 08:28:12 08:32:17 38° 98° (E) 08:36:27 435.000/436.395/437.385
FUNcube-1 19 Jan 08:28:34 08:31:59 22° 94° (E) 08:35:26 145.935
CINEMA 3 19 Jan 08:29:06 08:32:47 31° 290° (WNW) 08:36:32 145.822/145.860
CUTE-I 19 Jan 08:32:41 08:35:28 14° 302° (WNW) 08:38:15 437.470
CUTE 1.7 + AOD 2 19 Jan 08:37:42 08:41:47 44° 288° (WNW) 08:45:52 437.475
UNISAT 6 19 Jan 08:39:20 08:42:30 21° 66° (ENE) 08:45:40 437.425
PRISM 19 Jan 08:40:58 08:45:08 72° 75° (ENE) 08:49:18 437.425
ZACube-1 19 Jan 08:50:17 08:54:24 40° 98° (E) 08:58:36 437.345
TIGRISAT 19 Jan 08:52:43 08:56:14 26° 68° (ENE) 08:59:46 435.000
ANTELSAT 19 Jan 09:07:04 09:11:01 38° 71° (ENE) 09:14:59 437.575/2403.000
CANX-2 19 Jan 09:07:22 09:10:31 20° 294° (WNW) 09:13:39 2200.000
NOAA 18 19 Jan 09:07:57 09:10:41 14° 304° (WNW) 09:13:25 137.9125
HUMSAT D 19 Jan 09:15:54 09:17:36 12° 89° (E) 09:19:17 437.325/437.525
SEEDS 19 Jan 09:21:17 09:24:41 23° 293° (WNW) 09:28:03 437.485
COMPASS 1 19 Jan 09:29:16 09:32:52 27° 291° (WNW) 09:36:25 437.405
Oscar 11 19 Jan 09:29:19 09:33:42 89° 115° (ESE) 09:38:03 145.826/435.025
CUBEBUG 2 19 Jan 09:33:30 09:37:10 28° 291° (WNW) 09:40:55 437.445
DELFI C3 19 Jan 09:36:12 09:39:53 34° 97° (E) 09:43:32 145.870
GONETS M04 19 Jan 09:41:44 09:46:38 16° 285° (WNW) 09:51:35
AAUSAT CUBESAT 2 19 Jan 09:42:06 09:45:36 26° 292° (WNW) 09:49:03 437.432
JAS-2 19 Jan 09:44:32 09:49:20 35° 65° (ENE) 09:54:35 435.910
HO-68 19 Jan 09:54:23 10:00:00 26° 303° (WNW) 10:05:37 435.675
PCSat 19 Jan 09:55:16 10:00:38 57° 55° (NE) 10:05:58 145.827
SO-50 19 Jan 10:03:40 10:07:21 22° 319° (NW) 10:11:00 436.795
FUNcube-1 19 Jan 10:04:18 10:08:18 36° 289° (WNW) 10:12:22 145.935
UWE-3 19 Jan 10:05:14 10:08:31 21° 293° (WNW) 10:11:51 435.000/436.395/437.385
UNISAT 6 19 Jan 10:15:02 10:18:59 37° 263° (W) 10:22:57 437.425
PRISM 19 Jan 10:20:44 10:20:53 10° 271° (W) 10:21:02 437.425
QB50P1 19 Jan 10:23:45 10:27:15 27° 68° (ENE) 10:30:47 145.935-145.965
RS-15 19 Jan 10:26:51 10:38:05 44° 252° (WSW) 10:48:56 29.354- 29.394
ZACube-1 19 Jan 10:27:12 10:30:26 21° 294° (WNW) 10:33:42 437.345
POLYITAN 1 19 Jan 10:27:20 10:30:58 29° 68° (ENE) 10:34:35 437.675
QB50P2 19 Jan 10:28:24 10:32:08 32° 69° (ENE) 10:35:53 145.880/145.840
TIGRISAT 19 Jan 10:29:10 10:32:51 28° 264° (W) 10:36:32 435.000
BY70-1 19 Jan 10:41:37 10:44:19 22° 94° (E) 10:46:53 436.1900
ANTELSAT 19 Jan 10:44:51 10:47:53 19° 267° (W) 10:50:56 437.575/2403.000
HUMSAT D 19 Jan 10:49:22 10:53:36 63° 286° (WNW) 10:57:51 437.325/437.525
POPSAT HIP 1 19 Jan 10:49:54 10:53:57 49° 72° (ENE) 10:58:00 437.405
DUCHIFAT 1 19 Jan 11:02:21 11:06:27 59° 74° (ENE) 11:10:34 145.980
NANOSAT C BR1 19 Jan 11:07:06 11:11:16 74° 75° (ENE) 11:15:28 145.865
Oscar 11 19 Jan 11:08:43 11:09:07 10° 301° (WNW) 11:09:31 145.826/435.025
DELFI C3 19 Jan 11:11:33 11:14:27 20° 294° (WNW) 11:17:20 145.870
ESTCUBE 1 19 Jan 11:19:56 11:24:07 35° 97° (E) 11:28:16 437.505/2401.250
JAS-2 19 Jan 11:29:48 11:34:30 31° 266° (W) 11:39:35 435.910
Oscar 19 19 Jan 11:35:07 11:38:34 18° 61° (ENE) 11:42:00 437.125/150
VELOX 1 19 Jan 11:37:38 11:40:52 20° 93° (E) 11:44:04 145.980
PCSat 19 Jan 11:39:33 11:43:35 22° 253° (WSW) 11:47:37 145.827
Gurwin Techsat 1B 19 Jan 11:40:52 11:42:30 11° 55° (NE) 11:44:07 435.225
BUGSAT 1 19 Jan 11:42:27 11:46:27 59° 74° (ENE) 11:50:27 437.445
Cosmos 2491 19 Jan 11:57:52 12:04:31 23° 63° (ENE) 12:11:10 435.465 / 435.565
QB50P1 19 Jan 11:59:22 12:02:58 27° 264° (W) 12:06:34 145.935-145.965
POLYITAN 1 19 Jan 12:03:17 12:06:44 25° 265° (W) 12:10:12 437.675
QB50P2 19 Jan 12:04:38 12:07:58 23° 266° (W) 12:11:18 145.880/145.840
50 SAT 19 Jan 12:09:09 12:12:19 29° 97° (E) 12:15:27 437.505
BY70-1 19 Jan 12:11:59 12:14:34 21° 292° (WNW) 12:17:03 436.1900
DX 1 19 Jan 12:13:55 12:17:21 23° 94° (E) 12:20:47 434.975-435.025
SPROUT 19 Jan 12:15:31 12:19:28 37° 97° (E) 12:23:25 437.525
UKube-1 19 Jan 12:16:02 12:18:56 17° 93° (E) 12:21:49 .
AO-7 19 Jan 12:19:08 12:22:15 13° 40° (NE) 12:25:23 29.400- 29.500
CUSAT 1 19 Jan 12:23:13 12:27:08 14° 55° (NE) 12:31:00 437.405
CUBEBUG 1 19 Jan 12:26:40 12:31:01 75° 285° (WNW) 12:35:18 437.445
POPSAT HIP 1 19 Jan 12:27:39 12:30:00 15° 269° (W) 12:32:22 437.405
AISAT 19 Jan 12:39:38 12:44:03 86° 285° (WNW) 12:48:26 437.250
DUCHIFAT 1 19 Jan 12:40:49 12:42:30 12° 270° (W) 12:44:12 145.980
ESTCUBE 1 19 Jan 12:57:05 13:00:44 24° 294° (WNW) 13:04:21 437.505/2401.250
Oscar 19 19 Jan 13:12:12 13:17:21 65° 258° (WSW) 13:22:33 437.125/150
VELOX 1 19 Jan 13:13:21 13:17:29 40° 290° (WNW) 13:21:34 145.980
Gurwin Techsat 1B 19 Jan 13:16:14 13:21:32 76° 74° (ENE) 13:26:51 435.225
BUGSAT 1 19 Jan 13:20:48 13:22:11 11° 270° (W) 13:23:35 437.445
50 SAT 19 Jan 13:42:52 13:45:20 18° 293° (WNW) 13:47:46 437.505
TISAT 1 19 Jan 13:47:44 13:51:50 54° 101° (E) 13:55:55 437.305
DX 1 19 Jan 13:49:41 13:53:36 34° 291° (WNW) 13:57:30 434.975-435.025
UKube-1 19 Jan 13:51:05 13:55:11 43° 289° (WNW) 13:59:15 .
SPROUT 19 Jan 13:51:58 13:55:10 21° 294° (WNW) 13:58:20 437.525
ITAMSAT 1 19 Jan 13:52:55 13:57:35 35° 67° (ENE) 14:02:16 435.822/435.867
Cosmos 2491 19 Jan 13:53:39 14:02:27 82° 265° (W) 14:11:15 435.465 / 435.565
BEESAT 19 Jan 13:54:16 13:56:37 13° 90° (E) 13:58:58 436.000
SWISSCUBE 19 Jan 13:55:20 13:58:13 16° 91° (E) 14:01:06 437.505
YUBILEINY 19 Jan 14:01:17 14:09:37 50° 89° (E) 14:18:01 435.215
CUSAT 1 19 Jan 14:02:51 14:10:46 61° 75° (ENE) 14:18:13 437.405
AO-7 19 Jan 14:05:07 14:13:02 49° 62° (ENE) 14:20:59 29.400- 29.500
AO-85 19 Jan 14:05:13 14:09:44 45° 119° (ESE) 14:13:57 145.980
Cosmos 2504 19 Jan 14:06:51 14:13:58 30° 84° (E) 14:20:46 435.465 / 435.565
AIST 1 19 Jan 14:18:24 14:22:47 81° 97° (E) 14:27:09
DANDE 19 Jan 14:40:16 14:47:32 46° 73° (ENE) 14:55:29 436.750
ITUPSAT 1 19 Jan 14:54:40 14:59:23 53° 100° (E) 15:04:04 437.325
Gurwin Techsat 1B 19 Jan 14:59:16 15:02:03 14° 271° (W) 15:04:50 435.225
SO-50 19 Jan 15:13:18 15:15:31 13° 33° (NNE) 15:17:42 436.795
BRITE-PL 19 Jan 15:23:10 15:27:45 26° 65° (ENE) 15:32:17 437.365/2234.400
TISAT 1 19 Jan 15:24:44 15:27:02 15° 297° (WNW) 15:29:20 437.305
BEESAT 19 Jan 15:30:06 15:34:52 69° 287° (WNW) 15:39:37 436.000
SWISSCUBE 19 Jan 15:31:39 15:36:23 59° 288° (WNW) 15:41:05 437.505
ITAMSAT 1 19 Jan 15:32:33 15:37:04 30° 264° (W) 15:41:36 435.822/435.867
GOMX 1 19 Jan 15:35:18 15:37:53 14° 60° (ENE) 15:40:24 467.674
MOZHAYETS 4 19 Jan 15:35:41 15:40:09 45° 99° (E) 15:44:35
CUSAT 1 19 Jan 15:45:27 15:52:13 32° 274° (W) 15:58:39 437.405
AO-85 19 Jan 15:46:31 15:50:18 25° 315° (NW) 15:53:54 145.980
Cosmos 2491 19 Jan 15:52:55 15:57:50 17° 285° (WNW) 16:02:46 435.465 / 435.565
NOAA 15 19 Jan 15:55:35 15:55:56 10° 54° (NE) 15:56:18 137.62
AO-7 19 Jan 15:58:09 16:05:53 41° 261° (W) 16:13:42 29.400- 29.500
Cosmos 2504 19 Jan 15:58:14 16:06:50 62° 282° (WNW) 16:14:57 435.465 / 435.565
YUBILEINY 19 Jan 15:58:31 16:06:36 39° 289° (WNW) 16:14:45 435.215
BEESAT 3 19 Jan 16:01:34 16:04:29 20° 113° (ESE) 16:07:25 437.485
M-CUBED/EXP-1 PRIME 19 Jan 16:01:47 16:04:27 21° 100° (E) 16:07:02 437.505
O/OREOS (USA 219) 19 Jan 16:05:23 16:09:45 46° 63° (ENE) 16:14:05 437.305
CUBESAT XI-V 19 Jan 16:19:04 16:22:35 21° 92° (E) 16:26:03 437.345
DOVE 4 19 Jan 16:20:12 16:22:32 13° 62° (ENE) 16:24:49 437.250
DANDE 19 Jan 16:23:04 16:30:14 44° 269° (W) 16:37:58 436.750
KKS-1 19 Jan 16:23:33 16:27:47 43° 99° (E) 16:32:00 437.445
